Location: York
(31.8935°S, 116.7682°E)
Time: 09:41:49
(UTC+08:00)

Courier 1B Rocket - Visible Passes

Search period start: 03 October 2022 00:00
Search period end: 13 October 2022 00:00
Orbit: 920 x 1202 km, 28.2° (Epoch: 02 October)

Date Brightness Start Highest point End Pass type
(mag) Time Alt. Az. Time Alt. Az. Time Alt. Az.
03 Oct 7.1 05:03:35 10° NNW 05:08:49 22° NNE 05:14:19 10° ENE visible
04 Oct 7.2 04:04:17 10° N 04:07:56 15° NNE 04:11:40 10° ENE visible
05 Oct 6.6 04:53:51 10° NNW 04:59:44 30° NNE 05:05:57 10° E visible
06 Oct 6.8 03:55:44 16° N 03:58:48 21° NNE 04:03:58 10° ENE visible
07 Oct 7.1 02:58:33 14° NE 02:58:33 14° NE 03:01:19 10° ENE visible
07 Oct 6.1 04:44:55 12° NW 04:50:41 39° NNE 04:57:20 10° E visible
08 Oct 6.2 03:47:41 25° N 03:49:45 29° NNE 03:55:40 10° E visible
09 Oct 6.8 02:50:25 19° NE 02:50:25 19° NE 02:53:43 10° ENE visible
09 Oct 5.7 04:36:47 17° NW 04:41:44 48° NNE 04:48:35 10° E visible
10 Oct 5.8 03:39:28 35° N 03:40:45 38° NNE 03:47:04 10° E visible
11 Oct 6.6 02:42:08 23° NE 02:42:08 23° NE 02:45:28 10° E visible
11 Oct 5.4 04:28:29 21° WNW 04:32:52 57° NNE 04:39:45 10° E visible
12 Oct 5.4 03:31:08 45° N 03:31:51 47° NNE 03:38:21 10° E visible
